Weather in Davidov Brod

Ukraine / Kherson District     47°14′13″N   33°11′16″E
temp.,
°C
wind,
m/s
gust,
m/s
humid.,
%
clouds,
%
prec.,
mm/h
press.,
hPa
HPBL,
m
13 april, tue
tue1300:00+10sse2480100 0.0 1021158
03:00+9sse2484100 0.0 1021159
06:00+8s2486100 0.0 1021152
09:00+10sse3481100 0.0 1021386
12:00+12s347181 0.0 1021859
15:00+13sw3469100 0.1 1020903
18:00+12s117299 0.1 102086
21:00+11sse237796 0.1 102051
14 april, wed
wed1400:00+9sw358393 0.0 1019142
03:00+7sse2288100 0.0 101931
06:00+7sse229080 0.0 101817
09:00+11se347730 0.0 1017521
12:00+14se445863 0.1 10161345
15:00+16se444575 0.1 10141989
18:00+15se4754100 0.0 1013308
21:00+11se51068100 0.0 1014320
15 april, thu
thu1500:00+9se3579100 0.1 1013193
03:00+9sse3587100 0.8 1013350
06:00+9se3594100 0.2 1012269
09:00+9se61194100 6.0 1012707
12:00+9s5987100 1.3 1012720
15:00+10ssw8976100 1.5 1012976
18:00+9ssw71083100 0.0 1013719
21:00
16 april, fri
fri1600:00+6ssw5880100 0.0 1013727
03:00+6ssw5991100 0.1 1013894
06:00+6ssw61187100 0.2 1013876
09:00+6sw8117796 0.2 1013834
12:00+8sw8116989 0.0 10141133
15:00+9sw71066100 0.1 10151368
18:00+8wsw5876100 0.2 1015930
21:00+6ssw377393 0.1 1016199
17 april, sat
sat1700:00+7ssw5980100 0.0 1016761
03:00+6sw4787100 0.1 1016506
06:00+6sw3588100 0.0 1017365
09:00+7sw4680100 0.1 1018444
12:00+10wsw576796 0.0 10191104
15:00+10w567091 0.1 1020964
18:00+10wnw346810 0.0 1020721
21:00+6n338827 0.0 102037